TimeHST,TemperatureF,Dew PointF,Humidity,Sea Level PressureIn,VisibilityMPH,Wind Direction,Wind SpeedMPH,Gust SpeedMPH,PrecipitationIn,Events,Conditions,WindDirDegrees,DateUTC
12:01 AM,73.4,69.8,88,30.18,10.0,NE,16.1,-,N/A,,Mostly Cloudy,40,2014-04-22 10:01:00
12:11 AM,73.4,69.8,88,30.17,8.0,NE,17.3,-,N/A,,Mostly Cloudy,40,2014-04-22 10:11:00
12:53 AM,72.9,69.1,88,30.15,10.0,NE,16.1,-,0.00,,Overcast,50,2014-04-22 10:53:00
1:53 AM,73.0,69.1,87,30.14,10.0,NE,16.1,-,0.01,,Overcast,40,2014-04-22 11:53:00
2:53 AM,72.5,69.1,89,30.13,6.0,NNE,16.1,-,0.00,Rain,Light Rain,30,2014-04-22 12:53:00
3:29 AM,73.4,69.8,88,30.13,10.0,NE,16.1,-,0.00,,Overcast,50,2014-04-22 13:29:00
3:53 AM,72.7,69.1,88,30.12,10.0,NE,13.8,-,0.00,,Overcast,40,2014-04-22 13:53:00
4:48 AM,73.4,69.8,88,30.12,10.0,NE,16.1,-,0.00,,Scattered Clouds,50,2014-04-22 14:48:00
4:53 AM,72.5,69.1,89,30.11,10.0,NE,17.3,-,0.00,,Scattered Clouds,50,2014-04-22 14:53:00
5:43 AM,71.6,69.8,94,30.13,9.0,NE,17.3,-,0.00,,Overcast,50,2014-04-22 15:43:00
5:53 AM,71.6,70.0,95,30.13,10.0,ENE,15.0,-,0.00,,Overcast,60,2014-04-22 15:53:00
6:07 AM,71.6,69.8,94,30.14,6.0,East,18.4,26.5,0.00,Rain,Light Rain,80,2014-04-22 16:07:00
6:23 AM,71.6,69.8,94,30.14,10.0,ENE,12.7,-,0.00,,Mostly Cloudy,60,2014-04-22 16:23:00
6:33 AM,71.6,69.8,94,30.14,10.0,ENE,15.0,-,0.00,,Mostly Cloudy,70,2014-04-22 16:33:00
6:53 AM,72.0,70.0,93,30.14,10.0,NE,16.1,-,0.00,,Overcast,50,2014-04-22 16:53:00
7:04 AM,71.6,69.8,94,30.15,10.0,ENE,15.0,-,N/A,,Overcast,60,2014-04-22 17:04:00
7:53 AM,71.6,70.0,95,30.16,10.0,NE,13.8,-,N/A,,Overcast,50,2014-04-22 17:53:00
8:00 AM,71.6,69.8,94,30.16,10.0,NE,15.0,-,N/A,,Overcast,50,2014-04-22 18:00:00
8:51 AM,71.6,69.8,94,30.18,10.0,NE,15.0,-,N/A,,Overcast,50,2014-04-22 18:51:00
8:53 AM,71.6,70.0,95,30.17,10.0,NE,15.0,-,N/A,,Overcast,50,2014-04-22 18:53:00
9:49 AM,75.2,71.6,89,30.18,10.0,ENE,10.4,-,0.01,,Mostly Cloudy,60,2014-04-22 19:49:00
9:53 AM,75.9,72.0,87,30.17,10.0,ENE,15.0,-,0.01,,Mostly Cloudy,70,2014-04-22 19:53:00
10:48 AM,77.0,68.0,74,30.18,10.0,ENE,16.1,21.9,N/A,,Mostly Cloudy,60,2014-04-22 20:48:00
10:53 AM,77.0,69.1,76,30.17,10.0,ENE,15.0,-,N/A,,Mostly Cloudy,60,2014-04-22 20:53:00
11:53 AM,79.0,71.1,77,30.15,10.0,NE,16.1,-,N/A,,Clear,50,2014-04-22 21:53:00
12:53 PM,80.1,70.0,71,30.13,10.0,NE,18.4,-,N/A,,Partly Cloudy,50,2014-04-22 22:53:00
1:13 PM,78.8,69.8,74,30.13,10.0,NE,17.3,-,N/A,,Mostly Cloudy,50,2014-04-22 23:13:00
1:46 PM,78.8,69.8,74,30.12,10.0,NE,20.7,-,N/A,,Mostly Cloudy,40,2014-04-22 23:46:00
1:53 PM,77.0,68.0,74,30.10,10.0,NE,21.9,-,N/A,,Mostly Cloudy,40,2014-04-22 23:53:00
2:04 PM,75.2,68.0,78,30.11,10.0,NE,17.3,-,N/A,,Mostly Cloudy,40,2014-04-23 00:04:00
2:13 PM,75.2,68.0,78,30.11,10.0,NE,19.6,-,N/A,,Mostly Cloudy,40,2014-04-23 00:13:00
2:20 PM,75.2,68.0,78,30.10,10.0,NE,17.3,-,N/A,,Scattered Clouds,40,2014-04-23 00:20:00
2:44 PM,78.8,69.8,74,30.10,10.0,NE,17.3,-,N/A,,Mostly Cloudy,50,2014-04-23 00:44:00
2:53 PM,79.0,69.1,72,30.09,10.0,NE,18.4,-,N/A,,Mostly Cloudy,40,2014-04-23 00:53:00
3:41 PM,77.0,69.8,78,30.09,10.0,NNE,15.0,-,N/A,,Mostly Cloudy,30,2014-04-23 01:41:00
3:53 PM,77.0,69.1,76,30.08,10.0,NNE,15.0,-,N/A,,Mostly Cloudy,30,2014-04-23 01:53:00
4:48 PM,75.2,66.2,73,30.08,9.0,NE,13.8,-,N/A,,Mostly Cloudy,40,2014-04-23 02:48:00
4:53 PM,75.9,68.0,76,30.07,9.0,NE,16.1,23.0,N/A,,Scattered Clouds,40,2014-04-23 02:53:00
5:53 PM,75.9,68.0,76,30.08,9.0,NNE,15.0,-,N/A,,Mostly Cloudy,30,2014-04-23 03:53:00
6:04 PM,75.2,68.0,78,30.09,8.0,NE,15.0,21.9,N/A,,Mostly Cloudy,40,2014-04-23 04:04:00
6:23 PM,75.2,68.0,78,30.09,7.0,NE,17.3,-,N/A,,Mostly Cloudy,40,2014-04-23 04:23:00
6:32 PM,75.2,68.0,78,30.09,8.0,NE,17.3,-,N/A,,Mostly Cloudy,40,2014-04-23 04:32:00
6:53 PM,73.9,68.0,82,30.09,8.0,NE,18.4,-,N/A,,Mostly Cloudy,40,2014-04-23 04:53:00
7:06 PM,73.4,68.0,83,30.10,8.0,NE,17.3,-,N/A,,Mostly Cloudy,40,2014-04-23 05:06:00
7:14 PM,73.4,68.0,83,30.10,9.0,NE,17.3,-,N/A,,Mostly Cloudy,40,2014-04-23 05:14:00
7:53 PM,73.9,68.0,82,30.12,10.0,NE,18.4,-,N/A,,Mostly Cloudy,40,2014-04-23 05:53:00
8:53 PM,73.9,66.9,79,30.13,10.0,NE,10.4,-,N/A,,Mostly Cloudy,50,2014-04-23 06:53:00
9:53 PM,73.9,68.0,82,30.14,10.0,NE,15.0,-,0.00,,Mostly Cloudy,50,2014-04-23 07:53:00
10:53 PM,73.0,68.0,84,30.14,10.0,NE,15.0,-,N/A,,Clear,50,2014-04-23 08:53:00
11:53 PM,73.0,69.1,87,30.14,8.0,NE,12.7,-,0.00,Rain,Light Rain,40,2014-04-23 09:53:00